Tracking 22438 objects as of 25-Feb-2021
HD Live streaming from Space Station
objects crossing your sky now

DELTA 1 DEB

Track DELTA 1 DEB now!
10-day predictions


NORAD ID: 21317
Int'l Code: 1975-052AK
Perigee: 981.0 km
Apogee: 1,320.4 km
Inclination: 100.1 °
Period: 108.2 minutes
Semi major axis: 7521 km
RCS: 0.0147 m2 (small)
Launch date: June 12, 1975
Source: United States (US)
Launch site: AIR FORCE WESTERN TEST RANGE (AFWTR)

Note: This is SATELLITE DEBRIS
aabbcc
Your satellite tracking list
Your tracking list is empty




NASA's NSSDC Master Catalog

Two Line Element Set (TLE):
1 21317U 75052AK  21051.29382019  .00000060  00000-0  19471-3 0  9997
2 21317 100.0858 350.9944 0225562 274.8414 241.9055 13.30850976421414
Source of the keplerian elements: AFSPC